Regional Weather Roundup
Issued by NWS

Home | Current Version | Previous Version | Graphics & Text | Print | Product List | Glossary On
Versions: 1 2 3 4 5 6 7 8 9 10 11 12 13 14 15 16 17 18 19 20 21 22 23 24 25 26 27 28 29 30 31 32 33 34 35 36 37 38 39 40 41 42 43 44 45 46 47 48 49 50
000
ASUS43 KDMX 290908
RWRIA

WEATHER ROUNDUP FOR IOWA
NATIONAL WEATHER SERVICE DES MOINES IA
400 AM CDT FRI APR 29 2016

NOTE: "FAIR" INDICATES FEW OR NO CLOUDS BELOW 12,000 FEET WITH NO
SIGNIFICANT WEATHER AND/OR OBSTRUCTIONS TO VISIBILITY.

* - THESE STATIONS ARE NOT NWS STATIONS...THUS NOT UNDER NWS
QUALITY CONTROL.  THEY ALSO DO NOT REPORT WEATHER SUCH
AS PRECIPITATION OR FOG.

IAZ001>003-012>014-020>022-031>034-043>046-291000-
   NORTHWEST IOWA

CITY           SKY/WX    TMP DP  RH WIND       PRES   REMARKS
CARROLL *      CLOUDY    43  41  93 N6        30.11R
CHEROKEE *     CLOUDY    41  41 100 CALM      30.13R
DENISON *      CLOUDY    43  41  93 CALM      30.10R
LE MARS *      CLOUDY    41  39  93 CALM      30.14R
ORANGE CITY *  CLOUDY    39  37  93 CALM      30.12R
SHELDON *      CLOUDY    39  39 100 NE5       30.11S
SIOUX CITY     CLOUDY    43  38  82 CALM      30.13S
SPENCER        CLOUDY    40  37  89 NE5       30.12S
STORM LAKE *   CLOUDY    41  39  93 N5        30.12R
$$

IAZ055>058-069>071-079>083-090>094-291000-
   SOUTHWEST IOWA

CITY           SKY/WX    TMP DP  RH WIND       PRES   REMARKS
ATLANTIC *     CLOUDY    45  43  93 N6        30.11F
AUDUBON *      CLOUDY    43  39  87 N6        30.12R
CLARINDA *       N/A    N/A N/A N/A MISG        N/A
COUNCIL BLFS * CLOUDY    45  43  93 N3        30.12S
CRESTON *      CLOUDY    45  41  87 NW7       30.12S
HARLAN  *      CLOUDY    43  43 100 N5        30.15R
LAMONI         CLOUDY    46  42  86 N7        30.10R
RED OAK *      CLOUDY    45  43  93 N7        30.11F
SHENANDOAH *   CLOUDY    46  43  87 CALM      30.13R
$$

IAZ047>049-059>061-072>074-084-291000-
   CENTRAL IOWA

CITY           SKY/WX    TMP DP  RH WIND       PRES   REMARKS
AMES           CLOUDY    45  43  93 N7        30.10R
ANKENY *       CLOUDY    46  45  93 N8        30.12R
BOONE *        CLOUDY    43  43 100 N9        30.10R
CHARITON *     CLOUDY    46  45  93 NW8       30.11R
DES MOINES     CLOUDY    48  43  82 NW6       30.12R
GRINNELL*      CLOUDY    45  45 100 NW6       30.10R FOG
KNOXVILLE *    CLOUDY    48  46  93 NW8       30.10R
MARSHALLTOWN   CLOUDY    44  42  93 N6        30.10R
NEWTON *       CLOUDY    46  46 100 N7        30.10R FOG
PELLA *        DRIZZLE   48  46  93 N3        30.11R
$$

IAZ004>006-015-016-023>025-035-036-291000-
   NORTH CENTRAL IOWA

CITY           SKY/WX    TMP DP  RH WIND       PRES   REMARKS
ALGONA *       CLOUDY    41  39  93 CALM      30.12R
CLARION *      CLOUDY    41  41 100 N7        30.11S FOG
ESTHERVILLE    CLOUDY    39  37  92 N3        30.12R
FORT DODGE *   CLOUDY    41  37  87 N5        30.12R
MASON CITY     CLOUDY    41  40  96 CALM      30.13R
FOREST CITY *  CLOUDY    39  39 100 CALM      30.12R
WEBSTER CITY * CLOUDY    43  43 100 N9        30.09R FOG
IOWA FALLS *   CLOUDY    43  41  93 N5        30.11R
$$

IAZ007>011-017>019-026>030-037>042-050>054-066-291000-
   NORTHEAST IOWA

CITY           SKY/WX    TMP DP  RH WIND       PRES   REMARKS
CEDAR RAPIDS   CLOUDY    43  43 100 N7        30.07R
CHARLES CITY * CLOUDY    41  41 100 NE7       30.11R
CLINTON *      CLOUDY    42  41  96 N10       30.07R FOG
DECORAH *      CLOUDY    39  39 100 CALM      30.09R
DUBUQUE        CLOUDY    40  39  97 N7        30.07R FOG
MONTICELLO *   CLOUDY    43  41  93 N6        30.08R
OELWEIN *      CLOUDY    41  41 100 N7        30.09S
WATERLOO       CLOUDY    42  39  89 N5        30.10R
$$

IAZ064-065-067-068-078-291000-
   EAST CENTRAL IOWA

CITY           SKY/WX    TMP DP  RH WIND       PRES   REMARKS
DAVENPORT      CLOUDY    43  42  97 NE10      30.07R FOG
IOWA CITY      CLOUDY    45  43  93 N9        30.09R
MT. PLEASANT * LGT RAIN  50  50 100 N10       30.08R
MUSCATINE *    CLOUDY    46  45  93 N8        30.08R FOG
QUAD CITIES    CLOUDY    46  43  89 VRB5      30.06R FOG
$$

IAZ062-063-075>077-085>089-095>099-291000-
   SOUTHEAST IOWA

CITY           SKY/WX    TMP DP  RH WIND       PRES   REMARKS
BURLINGTON     CLOUDY    50  49  96 NW5       30.05R
FAIRFIELD *    CLOUDY    48  46  93 N8        30.09R
FORT MADISON * CLOUDY    50  48  93 NW8       30.06S
KEOKUK *       CLOUDY    50  48  93 NW6       30.06R
OSKALOOSA *    CLOUDY    46  45  93 N5        30.10R
OTTUMWA        CLOUDY    47  46  97 N7        30.09R
WASHINGTON *   CLOUDY    46  46 100 N7        30.10R FOG
$$

ABBREVIATIONS USED IN REMARKS
   TC - TEMPERATURES IN CELSIUS
  WCI - WIND CHILL INDEX
   HX - HEAT INDEX
  VSB - VISIBILITY
$$





USA.gov is the U.S. government's official web portal to all federal, state and local government web resources and services.